Погода в Элисте

Погода в Элисте : погода сейчас, прогноз погоды и архив. Всё, что Вы хотите узнать о погоде в Элисте!

Поиск расширенной информации на нашем сайте:

Другие новости

Новости СМИ2

Главная страница сайта

Новости сайта

03.07.2017

Напоминаем, что на нашем специализированном сайте Метеоцентр.Азия вы можете получить высокодетализированные автоматические прогнозы погоды по пунктам России, СНГ и мира в авиационном формате (включающие направление и скорость ветра, видимость, явления погоды, количество и форму облачности, нижнюю и верхнюю границу облачности).

Рекомендуем: Батарейка philips LR14 Батарейки LR14 BL, LR20 BL.

Погода в Элисте - сегодня

Время (UTC), дата Ветер
(°,м/с) 
Видим.   Явления Облачность Т
(°С)
Тd
(°С)
f(%) Тe
(°С)
Pmin
(гПа)
dP
(гПа)
Po
(мм)
O2
(г/м3)
Тmin Tmax R s Состояние
почвы
12 09.12.17 160 (Ю) 20000 м    10/10 600 м 
[Sc]
+0.6 -2.8 78 -2  1023.5  -0.5  749  302           
15 09.12.17 170 (Ю) 10 км    10/10 300 м 
[Sc]
+0.1 -2.6 82 -3  1023.7  0.2  749  302    +0.7       
18 09.12.17 180 (Ю) 10 км    6/0 средняя 
[Ac As]
-0.5 -2.5 86 -4  1023.4  -0.3  749  303           
21 09.12.17 200 (Ю) 10 км    9/0 средняя 
[Ac As]
-0.2 -2 88 -2  1023.7  0.3  749  302           
00 10.12.17 190 (Ю) 10 км    ясно 
-1 -2.6 89 -3  1023.7  0.1  749  303           
03 10.12.17 170 (Ю) 10 км    ясно 
-0.4 -2.3 87 -2  1023.3  -0.4  749  302  -2         
06 10.12.17 170 (Ю) 20000 м    8/0 верхняя 
[Ci]
+2.1 -0.7 82 1023  749  300           
09 10.12.17 170 (Ю) 20000 м    3/0 верхняя 
[Ci fib]
+6.4 +1 68 +4  1022.1  749  295           
12 10.12.17 140 (ЮВ) 6{10}  20000 м    ясно 
+6.1 +1.1 70 +4  1020.8  -1.3  748  294           
15 10.12.17 130 (ЮВ) 0500 м  туман  н/о 
+1.3 +0.1 92 -1  1021.1  0.1  747  300    +6.9       
18 10.12.17 130 (ЮВ) 2000 м  дымка{туман}  10/10 200 м 
[St]
+1.4 +0.2 92 -2  1019.6  -1.4  746  299           
21 10.12.17 120 (ЮВ) 0500 м  туман  н/о 
+1.9 +0.7 92 1019.2  -0.4  746  298           
00 11.12.17 130 (ЮВ) 0500 м  туман  н/о 
+1.8 +0.6 92 -1  1018.9  -0.3  746  298           
03 11.12.17 тихо ()   0500 м  туман  н/о 
+2.2 +1 92 +2  1021.3  2.4  748  299  +0.1         
06 11.12.17 тихо ()   0200 м  туман  н/о 
+2.8 +1.6 92 +3  1023.5  2.4  749  299           
09 11.12.17 260 (З) 20000 м  {туман}  10/10 600 м 
[Sc]
+3.9 +2.6 91 +5  1024.9  2.4  750  298           
12 11.12.17 290 (З) 20000 м    4/0 средняя, верхняя 
[Ac trans|Ci fib]
+4.6 -1.5 65 +3  1026  1.2  751  298           
15 11.12.17 тихо ()   10 км    3/0 средняя 
[Ac trans]
+0.4 -2.9 78 1028.2  1.7  753  303    +5.1       
18 11.12.17 тихо ()   10 км    ясно 
+0.5 -3.3 76 +1  1028.4  0.2  753  303           
21 11.12.17 тихо ()   10 км    10/0 средняя 
[Ac trans]
+1.7 -2.4 74 +2  1028.4  -0.1  753  302           
00 12.12.17 тихо ()   10 км    10/0 средняя 
[Ac As]
+1.8 -1.4 79 +2  1028.1  -0.3  753  301           
03 12.12.17 тихо ()   10 км    10/0 средняя 
[Ac und]
+1.9 -1.1 80 +2  1027.3  -0.8  752  301  -0.7         
06 12.12.17 тихо ()   20000 м    10/5 600 м средняя 
[Sc|Ac und]
+2.4 -0.3 82 +2  1027.5  0.3  752  300           
09 12.12.17 200 (Ю) 10 км  слаб. ливневой дождь  10/8 600 м кучево-дожд., средняя 
[Cb cap|Ac und]
+4.8 +0.8 75 +3  1026.6  -0.7  752  298           
12 12.12.17 170 (Ю) 20000 м  в посл. час ливневой снег  10/8 600 м кучево-дожд., средняя 
[Cb cap|As trans]
+4.7 +1.2 78 +3  1026.2  -0.4  751  297           
Время (UTC), дата Ветер
(°,м/с) 
Видим.   Явления Облачность Т
(°С)
Тd
(°С)
f(%) Тe
(°С)
Pmin
(гПа)
dP
(гПа)
Po
(мм)
O2
(г/м3)
Тmin Tmax R s Состояние
почвы

Для получения пояснительной информации подведите курсор к названию столбца.

ПОГОДА в Элисте - архив

Всё, что Вы хотите узнать о погоде в Элисте - удобно и подробно!

Выберите нужную дату (начиная с 1 января 2015* года) и нажмите кнопку "Найти".
Будут отображены архивные сводки погоды по пункту Элиста, начиная с указанной даты.


Отображать данные в формате CSV (для использования в таблицах Excel)


Внимание! Наш архив погоды предназначен исключительно для личного некоммерческого использования в познавательных целях. Если Вам необходимы официальные справки о состоянии погоды (для производственных, юридических, коммерческих и т.п. целей), обращайтесь в органы Росгидромета.

*Примечание: данная дата относится к архиву по метеостанциям СССР (Россия, СНГ, Балтия).
Архив по метеостанциям Зарубежной Европы и Азии (кроме Китая) хранится 10 дней, по другим регионам земного шара (Китай, Африка, Америка, Австралия, Океания) - 1 день.

Элиста - район местоположения метеостанции


Название, широта, долгота, высота метеостанции:
Элиста 46.4°ш. 44.3°д. 155 м над ур. моря [Российская Федерация]

Дополнительная информация

В oтличие oт бoльшинства пoгoдных сайтoв мы публикуем пoдрoбную метеoинфoрмацию в детальнoм прoфессиoнальнoм фoрмате.

Характеристики температуры и влажнoсти вoздуха измеряются на высoте 2 м в тени вдали oт зданий и деревьев.
Скoрoсть ветра измеряется на высoте 10 м (на урoвне рoста челoвека скoрoсть ветра ниже в 1.5-2 раза). Если метеoстанция нахoдится в гoрoде или в лесу, тo скoрoсть ветра занижена на 2-4 м/с пo сравнению с oткрытым местoм. Скoрoсть ветра над акватoриями крупных рек и oзёр, а также на вершинах хoлмoв на 2-5 м/с выше, чем в oбычных услoвиях.
Атмoсфернoе давление в разных тoчках местнoсти мoжет значительнo oтличаться oт давления на метеoстанции, в зависимoсти oт услoвий рельефа (при пoдъёме на 10 м давление пoнижается примернo на 1 мм рт.ст.).